GFSSW_sfc_temp_150.txt.gz
Temp
63 64 64 64 64 64 64 65 65 65 65 65 66 63 64 64 65 65 64 72 71 70 69 70 75 75 76 70 72 71 64 60 63 61 66 67 68 68 70 69 69 71 71 71 72
63 63 64 64 64 64 64 64 64 64 65 65 65 63 63 64 65 63 72 72 70 69 67 63 69 71 71 69 67 70 63 63 70 71 69 68 71 69 69 67 66 67 66 70 65
62 62 62 63 63 63 63 63 63 63 64 64 64 63 62 64 58 62 71 71 69 69 65 61 67 65 66 69 68 66 64 69 68 70 69 68 67 71 71 65 73 70 66 62 63
61 61 61 62 62 63 63 63 63 63 63 64 63 62 61 63 47 62 64 69 69 69 64 57 58 60 57 58 66 63 66 68 67 68 67 66 73 68 72 75 73 77 71 64 62
61 60 60 61 61 62 62 62 62 62 61 63 63 62 60 53 55 64 63 67 71 68 61 58 58 55 55 59 64 59 65 65 67 66 67 67 67 71 69 72 72 73 69 65 65
60 59 59 59 60 60 61 61 61 61 60 61 63 61 58 48 60 60 62 66 68 69 63 59 60 59 57 53 56 63 65 65 64 65 65 66 65 67 74 72 69 68 68 68 67
60 59 59 58 59 60 60 60 60 60 60 61 64 61 55 56 59 59 60 58 63 70 61 63 60 59 55 50 55 59 60 62 64 64 63 67 60 62 71 70 68 68 69 67 68
59 59 58 58 58 59 60 60 60 59 59 60 62 60 52 57 58 58 57 56 58 68 65 65 63 58 58 55 51 50 56 52 65 64 63 65 61 69 69 68 69 69 69 66 66
59 58 58 58 58 58 59 60 59 60 59 60 56 56 49 57 54 55 56 54 53 56 60 62 59 53 53 51 44 43 44 53 57 64 62 63 63 68 67 68 70 70 70 68 67
58 57 58 58 58 58 58 58 59 58 58 58 58 51 49 51 53 54 55 54 50 50 51 51 49 47 52 54 43 42 43 48 56 60 60 60 62 64 65 66 70 71 71 69 68
58 57 57 58 58 58 58 56 49 47 49 50 49 51 52 55 59 52 54 51 50 47 41 47 43 42 50 58 62 54 54 55 57 58 59 60 63 68 66 63 66 68 70 69 70
57 57 57 57 58 58 57 51 52 50 43 53 53 55 54 58 47 49 55 46 45 40 42 39 40 53 59 59 53 56 55 55 54 56 57 58 58 65 65 65 68 69 69 69 70
57 57 57 57 58 56 53 52 56 54 39 46 52 52 51 58 47 46 52 48 42 39 37 36 48 53 52 54 52 54 55 53 54 53 55 54 55 60 65 65 66 67 71 72 71
57 57 57 57 51 54 50 58 56 52 33 39 44 48 53 57 46 53 54 47 41 35 37 37 49 49 48 51 55 48 56 56 52 54 49 54 48 58 64 61 62 66 68 70 71
57 56 57 57 53 49 54 55 54 47 24 42 43 58 53 52 47 45 53 50 39 36 37 37 43 46 47 50 53 52 55 55 52 52 51 49 48 57 57 58 62 64 68 70 73
56 56 56 54 53 54 56 54 49 29 25 36 42 41 45 48 50 46 47 55 49 39 39 38 46 48 51 49 55 52 52 51 51 51 42 52 51 54 57 59 65 67 69 68 70
56 55 54 55 47 56 53 44 29 25 36 32 36 41 43 42 43 45 42 39 37 32 32 34 36 43 48 49 51 54 53 41 39 39 39 43 43 54 61 60 63 67 68 70 72
55 54 53 55 55 54 48 34 23 32 33 36 40 40 37 44 43 44 42 39 45 46 35 33 29 38 51 53 49 53 54 43 32 34 41 39 42 53 60 64 63 65 66 65 66
54 49 49 52 55 52 39 25 26 33 37 35 38 35 36 44 42 43 42 43 46 49 43 34 36 47 49 50 56 50 47 53 39 29 38 46 49 54 57 58 60 61 59 62 65
46 45 45 53 53 46 33 30 31 41 36 40 34 39 32 37 40 42 42 48 45 52 52 47 36 44 46 51 51 53 55 43 44 31 31 42 42 49 53 60 61 61 63 64 63
44 39 48 53 51 39 28 32 36 42 39 38 37 33 37 36 43 41 41 48 53 48 51 51 45 37 44 44 47 47 46 47 50 44 37 36 48 58 56 58 59 60 58 58 60
42 33 48 51 34 34 31 36 42 42 42 36 41 43 40 42 41 42 40 47 55 52 46 51 41 33 41 46 46 48 48 49 43 34 40 37 45 54 56 56 54 58 57 57 57
36 37 47 48 30 30 36 38 40 37 39 33 37 47 48 44 37 45 46 48 54 52 47 46 38 31 35 43 44 45 48 52 47 45 34 37 46 54 54 56 58 55 57 56 54
37 30 37 40 43 37 33 34 33 43 39 36 37 48 46 43 45 42 43 46 52 53 47 49 40 38 34 41 45 40 45 48 49 37 38 43 51 54 55 57 57 57 57 57 55
34 33 34 30 32 36 38 38 34 34 40 38 36 45 45 40 40 42 44 44 49 49 49 48 35 38 40 42 46 44 42 44 44 48 41 49 49 56 61 60 62 63 60 57 54
32 32 33 34 39 34 36 35 35 37 36 34 36 46 48 44 45 41 44 45 44 45 48 45 35 37 32 40 41 38 44 44 47 49 50 51 50 60 63 63 63 62 59 57 58
37 35 39 35 34 32 33 36 38 41 42 43 45 46 46 50 53 52 54 53 48 48 46 44 36 34 33 36 38 34 39 44 47 51 53 47 54 54 54 54 57 60 60 58 57

GFSSW_sfc_temp_156.txt.gz
Temp
64 64 64 64 64 64 64 64 64 64 64 64 65 65 64 65 64 63 59 71 72 70 70 65 63 61 65 67 69 71 56 55 59 59 63 67 66 67 71 67 69 70 67 70 68
64 64 64 64 64 64 64 64 64 64 64 64 64 65 64 64 63 58 69 72 70 71 70 64 57 58 53 60 65 63 55 59 69 70 66 69 67 66 64 66 63 65 68 67 66
63 63 63 63 63 63 64 64 63 63 63 63 64 64 63 65 56 59 70 71 71 71 73 65 61 57 51 53 61 62 56 67 69 70 70 68 67 69 65 61 67 64 62 62 64
62 62 62 62 63 63 63 63 63 63 63 63 63 63 63 62 47 67 68 70 70 76 68 62 59 52 50 48 58 58 64 68 70 68 66 66 69 66 66 67 74 72 66 63 63
61 61 61 61 62 62 63 63 63 63 62 63 62 63 60 53 56 67 66 69 72 71 65 62 57 54 50 50 53 52 62 68 70 66 66 69 66 65 65 66 69 73 66 62 63
61 60 60 60 61 61 62 62 62 62 62 62 62 62 57 47 70 68 70 68 70 68 66 63 59 59 54 52 50 54 57 62 68 66 66 62 65 66 68 70 70 67 64 62 63
61 60 60 60 60 60 61 62 62 62 62 62 62 60 52 55 69 68 67 67 69 69 64 66 64 59 55 50 54 52 49 56 64 64 63 62 58 59 69 69 68 66 65 64 65
60 60 59 59 60 60 60 61 61 61 61 61 62 58 48 62 66 64 64 63 65 65 63 67 65 58 56 54 51 48 47 43 62 64 62 60 51 63 67 67 65 66 66 67 67
60 59 59 59 59 59 60 60 60 60 60 61 56 53 47 61 56 63 64 58 58 59 59 62 61 54 52 49 45 45 42 43 48 65 61 56 53 65 69 66 64 65 67 67 67
59 59 59 59 59 59 59 60 59 59 59 60 58 48 50 51 57 61 62 60 53 54 54 52 49 47 48 46 39 42 43 45 47 59 60 53 55 63 66 65 64 66 67 67 67
59 59 59 59 59 59 58 56 50 49 54 49 50 50 52 58 58 55 58 54 54 51 44 46 43 42 48 50 51 53 49 48 54 62 58 56 56 61 62 60 60 62 66 68 67
59 59 58 59 59 59 58 52 55 55 46 53 55 54 58 57 48 52 57 49 46 43 43 41 40 49 53 54 51 51 46 47 51 52 56 56 55 61 63 60 63 64 66 69 68
58 58 58 58 58 56 53 54 62 61 45 50 53 52 52 52 48 49 51 51 46 40 42 42 45 52 49 47 46 47 46 48 49 49 49 50 49 55 63 65 63 64 66 68 69
58 58 58 58 52 54 51 61 62 60 35 41 45 50 53 53 45 56 54 51 43 40 44 43 46 47 45 42 47 43 52 51 48 43 40 51 41 53 59 61 61 63 62 64 66
58 57 57 58 54 49 56 60 60 53 16 47 47 59 53 46 47 47 57 48 39 38 39 37 39 40 40 44 48 47 45 46 47 45 43 42 40 47 57 56 61 63 63 64 66
57 57 57 55 55 57 60 59 52 31 16 36 44 43 42 46 46 46 46 47 47 40 39 37 42 44 44 46 46 45 44 46 44 44 34 43 41 45 54 58 61 64 65 66 66
56 56 55 58 49 60 57 49 29 21 41 31 37 41 42 41 42 43 37 35 35 31 32 33 34 39 43 39 40 41 38 30 30 30 32 46 42 49 56 58 60 63 64 66 66
55 56 56 58 59 57 52 36 20 28 34 40 39 40 37 42 41 40 36 33 43 45 35 32 28 35 40 41 39 34 37 34 28 28 32 39 36 46 59 60 60 61 61 60 64
55 51 51 54 57 55 43 26 25 34 42 39 38 32 34 40 37 35 36 36 41 47 39 36 32 40 41 44 45 35 32 44 32 30 30 37 43 53 54 54 55 57 57 56 54
48 46 47 55 56 49 35 31 35 45 40 43 30 35 31 34 34 33 36 45 43 49 52 43 30 37 37 40 40 37 43 32 34 25 25 33 35 43 48 51 54 54 55 56 58
46 39 48 55 52 41 29 32 41 44 45 38 34 31 35 34 36 34 36 43 51 49 50 45 38 31 35 33 34 35 33 34 41 40 30 27 35 51 53 53 52 53 54 54 54
41 32 49 52 35 35 32 38 45 44 46 38 38 35 33 34 33 34 37 43 52 52 43 47 38 28 33 39 43 42 38 38 35 34 34 33 38 51 52 52 53 53 54 52 52
36 38 48 48 30 31 37 39 42 42 42 35 33 39 40 35 32 36 39 50 51 50 47 47 37 27 29 34 35 33 36 38 40 39 30 29 38 51 51 50 51 52 51 51 50
37 32 38 40 43 36 33 35 36 44 42 39 36 40 36 33 37 34 35 48 52 52 51 51 41 37 33 37 36 32 36 39 39 30 32 34 41 47 49 50 50 51 51 50 50
33 32 34 30 32 37 38 38 35 34 41 40 34 35 36 32 36 34 39 40 50 51 48 45 34 37 37 41 42 39 38 39 37 43 37 43 44 50 52 52 52 53 53 53 53
33 33 33 35 39 37 38 35 35 37 37 34 34 36 38 34 38 34 34 39 41 45 43 43 34 35 30 37 41 36 40 39 39 40 43 48 47 56 57 56 53 56 56 55 55
39 38 38 37 35 33 34 36 37 40 41 43 40 37 36 38 44 45 43 40 39 43 38 39 35 36 29 34 35 31 38 40 42 47 47 42 51 54 50 53 55 57 56 56 55

GFSSW_sfc_temp_159.txt.gz
Temp
64 64 64 64 64 64 64 64 64 64 63 64 64 64 64 64 64 63 59 68 69 69 68 65 63 62 63 56 64 66 51 49 54 56 59 62 60 63 65 66 63 64 63 65 66
64 64 64 64 64 64 64 64 64 63 63 63 64 64 64 64 62 59 68 70 71 69 64 61 57 60 54 53 54 60 48 55 64 64 61 65 63 63 61 60 58 57 62 66 65
63 63 63 63 63 64 63 64 63 63 63 63 63 63 63 63 57 58 70 70 71 70 68 63 61 59 56 54 51 51 51 62 65 68 69 65 62 65 60 55 60 56 58 61 62
62 62 62 63 63 63 63 63 63 62 62 62 63 63 64 59 42 61 67 70 70 71 66 60 57 54 51 51 53 47 57 59 62 65 65 64 66 61 62 63 67 62 61 61 62
62 61 62 62 62 62 63 63 63 62 62 62 62 63 60 52 54 65 67 68 69 67 63 59 56 53 52 53 52 50 54 58 61 60 64 66 63 63 62 65 66 64 61 61 61
61 61 61 61 61 62 62 62 62 62 62 62 62 62 54 46 65 66 66 65 68 67 62 62 59 58 53 51 53 54 53 55 59 56 64 62 60 62 64 67 65 62 60 60 61
61 60 60 60 61 61 61 62 62 61 61 62 63 58 52 52 64 63 65 63 65 67 62 65 63 59 54 49 53 53 50 53 55 57 60 61 56 57 65 65 63 61 60 60 61
60 60 60 60 60 60 61 61 61 61 61 62 62 56 48 61 60 62 61 60 63 62 64 62 63 57 54 53 51 48 49 44 56 59 59 60 51 60 64 63 60 60 58 60 60
60 59 59 59 59 60 60 60 60 61 61 61 55 52 48 61 56 61 59 56 56 56 58 63 60 53 52 48 43 46 42 42 48 58 55 54 51 62 64 62 62 60 59 59 60
59 59 59 59 59 59 59 60 60 59 58 59 56 47 51 48 55 60 60 57 53 53 53 52 51 48 49 46 39 38 39 44 46 54 53 52 54 61 60 62 63 63 62 61 61
59 59 59 59 59 60 57 52 45 44 48 45 46 46 51 53 56 55 57 55 54 51 46 47 45 43 48 49 51 50 47 46 51 56 51 50 54 60 63 58 59 57 60 62 63
59 59 59 59 59 59 55 45 48 50 40 50 50 51 53 54 46 51 56 49 47 43 46 42 41 48 50 51 51 49 46 46 50 55 50 50 48 59 58 56 59 61 59 62 64
59 59 59 58 59 56 51 50 57 56 40 45 49 48 48 51 46 46 52 51 45 43 43 41 47 52 50 49 45 47 45 46 46 47 49 45 47 52 56 58 59 61 65 66 65
58 58 58 58 52 52 48 56 57 54 24 36 40 47 48 49 42 53 54 52 45 42 45 43 50 47 45 45 49 43 50 51 49 44 39 47 39 51 56 56 59 62 61 61 66
56 58 58 57 52 47 52 56 54 45 5 39 41 54 50 45 44 45 52 50 42 40 42 40 42 44 41 46 48 46 52 49 48 44 43 39 38 47 54 53 58 61 62 65 63
51 57 57 55 52 54 57 56 47 20 7 33 42 41 41 43 43 47 48 49 47 41 39 39 42 45 45 43 47 48 45 42 41 41 34 43 40 40 49 55 59 62 63 65 66
52 56 55 56 46 56 56 47 25 10 33 32 36 40 40 39 41 42 41 38 36 31 31 33 35 40 43 39 42 45 41 31 30 29 31 44 39 47 52 55 62 62 62 65 66
52 55 56 56 56 56 51 31 8 19 27 39 40 41 37 41 41 40 37 35 41 40 34 31 28 35 42 42 38 40 42 33 27 28 30 38 36 44 56 62 60 64 66 64 62
53 51 51 53 56 55 42 25 20 24 36 37 40 35 34 40 39 40 38 38 39 42 35 33 33 40 41 43 44 36 35 41 32 28 29 37 40 50 53 53 55 56 55 56 57
44 47 46 56 56 49 35 27 32 40 39 38 25 31 24 34 35 34 35 42 42 43 49 41 31 37 38 42 41 39 44 33 32 27 25 32 33 42 48 53 52 53 54 54 55
43 37 47 56 53 40 29 31 36 41 43 36 30 31 36 35 37 33 35 42 47 44 47 44 37 31 36 34 34 35 34 36 38 34 29 25 33 47 53 56 52 52 53 54 55
37 32 48 53 36 35 31 35 43 39 40 36 35 32 30 36 34 35 35 40 50 49 40 44 34 27 32 38 42 40 37 38 37 30 32 31 34 47 49 52 54 53 52 51 51
33 38 49 48 30 30 35 37 39 37 36 32 32 36 37 33 28 34 37 44 48 47 45 42 32 26 29 34 36 35 39 45 41 35 30 30 37 48 48 47 49 50 51 51 49
33 32 39 40 39 36 33 34 32 40 37 35 33 36 34 31 35 31 34 40 45 44 46 48 35 34 29 35 36 33 35 39 41 31 32 35 39 46 46 48 48 49 50 49 48
33 33 33 30 33 37 36 36 32 31 37 36 33 33 32 26 31 30 36 39 43 45 44 42 32 37 36 37 38 37 36 36 38 40 36 40 42 48 49 48 50 51 50 50 50
32 33 33 34 37 35 36 33 33 33 34 31 30 33 35 29 33 29 38 37 36 42 42 43 32 35 32 37 38 35 38 38 40 40 37 39 42 53 54 53 48 52 51 51 51
37 36 39 38 34 32 32 34 36 37 36 39 36 33 32 36 41 43 43 42 39 38 33 36 33 31 30 34 33 29 34 37 39 43 41 37 45 52 52 51 52 52 52 53 53

GFSSW_sfc_temp_162.txt.gz
Temp
64 64 64 64 64 65 65 65 64 63 63 63 64 64 64 64 64 63 58 66 67 69 67 63 63 62 63 57 58 61 49 45 53 55 56 62 59 61 64 62 59 60 60 64 65
64 64 64 64 64 64 64 64 64 63 63 63 63 64 64 64 62 60 68 71 70 69 63 60 57 60 56 53 53 52 49 51 62 63 59 62 61 63 60 59 55 56 60 67 63
63 63 63 64 64 63 64 64 63 63 63 63 63 63 63 62 54 56 70 70 70 69 65 61 60 58 54 54 52 49 47 56 59 62 59 59 60 61 59 55 57 57 57 62 63
63 63 63 63 63 63 63 63 63 62 62 62 63 63 64 57 41 60 67 70 69 68 63 59 56 53 52 51 53 50 56 58 59 60 56 56 60 61 60 64 67 62 61 62 62
62 62 62 62 62 63 63 63 63 62 62 62 62 63 59 51 51 64 67 67 68 67 60 57 54 52 50 52 51 50 56 58 59 59 56 59 57 59 59 65 62 61 60 61 62
61 61 61 61 61 62 62 62 62 62 62 62 62 62 52 43 64 64 66 63 67 66 61 60 57 57 52 52 50 54 57 58 57 58 57 55 57 59 63 62 58 59 58 59 61
61 61 60 60 61 61 61 62 62 61 62 63 62 58 51 49 62 62 62 60 63 66 61 62 59 57 54 48 53 53 49 52 53 57 56 57 54 56 64 61 58 58 58 59 60
61 60 60 60 60 61 61 61 61 61 61 62 62 57 47 60 59 60 60 58 62 63 63 64 63 56 53 54 49 48 48 42 53 57 56 53 46 56 61 59 57 57 57 58 59
60 60 60 60 60 60 60 61 60 61 62 61 55 52 45 60 54 58 60 55 56 57 58 62 60 53 52 47 44 45 43 41 49 58 54 50 47 58 63 59 59 57 57 58 59
60 59 59 60 60 60 60 60 60 59 57 58 56 47 49 47 53 57 57 56 53 53 52 53 52 48 48 45 39 41 42 42 45 52 53 46 46 55 59 61 61 59 57 58 58
59 59 59 60 60 60 58 52 47 44 50 43 45 45 49 52 56 54 57 54 54 51 45 48 44 42 45 48 51 51 45 45 49 54 49 47 49 55 59 61 58 60 58 58 59
59 59 59 60 60 60 55 47 50 49 42 48 48 49 51 54 48 50 56 48 47 43 47 43 41 48 51 50 48 46 44 44 49 52 50 48 47 55 59 60 57 61 61 61 62
57 59 59 59 59 56 50 49 57 54 39 43 47 46 47 50 45 45 52 50 46 42 44 41 45 50 49 46 43 45 44 45 46 46 49 45 43 48 54 57 60 62 63 64 64
55 57 59 59 53 52 48 55 55 52 23 35 39 45 47 49 41 51 53 51 43 40 44 43 48 46 44 43 46 40 50 50 46 42 38 46 37 49 54 53 57 60 59 62 65
55 52 58 58 52 47 52 54 52 45 6 38 39 53 49 44 43 46 51 47 41 41 42 39 42 41 42 45 48 43 51 46 46 43 42 41 38 46 53 50 54 58 61 62 65
54 50 57 55 55 54 57 54 46 20 8 30 40 38 40 42 42 46 47 49 49 43 42 40 43 43 45 47 46 47 45 43 42 42 35 43 39 44 48 50 56 60 62 64 65
54 54 54 55 48 57 56 49 26 11 31 32 34 40 38 38 38 41 40 39 38 32 32 33 36 40 42 43 42 44 41 32 31 30 33 42 39 44 52 55 58 60 63 64 67
54 53 50 55 57 56 51 34 14 19 25 37 37 39 34 38 38 41 37 35 42 41 36 32 29 35 41 44 42 41 42 33 26 27 29 36 35 42 54 59 60 58 63 66 65
54 49 47 51 56 55 40 25 24 27 35 36 37 32 31 36 36 35 33 36 42 43 36 33 34 40 41 43 46 39 37 44 33 26 28 33 38 46 51 51 54 57 57 59 62
45 43 41 52 55 47 34 29 29 35 39 39 28 35 29 34 33 35 35 41 39 44 48 39 31 37 39 42 40 39 44 34 34 27 27 31 32 40 45 52 54 51 53 53 55
43 34 44 52 51 38 28 30 34 40 42 34 29 27 30 33 37 34 36 42 44 42 44 42 35 31 36 33 34 35 35 38 38 34 29 25 34 43 51 55 55 56 55 55 54
37 31 46 50 34 33 31 34 41 38 38 35 34 33 33 36 35 33 34 38 47 44 37 44 37 28 32 38 42 45 39 39 35 31 31 30 36 47 47 48 50 52 52 51 51
33 34 46 46 29 30 36 36 38 36 36 32 32 35 35 37 32 39 39 43 43 44 42 43 34 28 29 33 37 33 38 41 41 36 34 30 38 47 45 46 49 51 51 50 49
33 30 37 39 40 35 32 34 31 38 34 34 33 36 33 30 33 31 33 39 42 43 47 46 37 33 31 35 36 33 37 39 41 35 38 37 42 46 46 47 47 50 50 48 47
32 32 33 30 32 37 38 37 33 31 34 35 30 32 31 26 30 30 34 35 40 45 42 39 31 34 36 37 39 37 37 38 37 41 38 44 42 49 49 49 50 50 49 49 49
32 32 33 32 35 36 38 34 34 31 33 31 31 33 34 29 31 28 34 35 35 37 40 39 32 32 31 37 38 34 38 39 39 41 44 43 37 52 54 45 45 50 50 50 51
35 37 39 35 35 33 34 35 36 35 35 38 36 33 31 34 39 39 40 39 38 35 33 32 32 31 30 32 33 29 35 37 39 43 44 38 45 48 50 47 47 48 48 50 51

GFSSW_sfc_temp_165.txt.gz
Temp
65 65 64 65 64 64 65 65 64 64 63 63 64 64 64 64 64 62 57 65 66 69 67 61 63 61 61 56 57 57 49 45 49 54 54 56 56 62 61 59 60 59 58 61 63
64 64 64 64 64 64 64 64 64 63 63 63 63 64 64 64 58 56 67 70 70 69 62 58 56 59 53 52 53 50 45 50 56 53 51 54 55 58 56 55 58 56 59 63 61
64 63 64 64 64 64 64 64 63 63 62 62 63 63 63 62 52 54 68 70 69 68 64 60 59 57 52 52 50 49 46 56 58 58 57 56 55 57 57 52 59 59 58 59 60
63 63 63 63 63 63 64 64 63 63 62 62 62 63 63 56 41 60 67 68 69 66 62 58 56 52 49 49 51 47 54 59 59 60 57 56 56 55 56 61 63 62 61 60 59
62 62 62 62 63 63 63 63 63 62 62 62 62 62 57 48 50 64 67 67 65 64 60 55 53 51 49 49 50 47 52 58 59 58 58 58 56 54 55 64 62 60 59 60 61
62 61 61 61 62 62 63 63 62 62 62 62 62 62 51 42 60 62 63 62 63 62 61 58 55 55 50 49 48 51 53 55 57 57 59 57 60 57 59 60 58 57 58 60 61
61 61 61 61 61 62 62 62 62 62 62 63 62 57 51 48 60 60 61 58 62 63 59 61 61 58 53 47 51 50 47 50 52 55 55 56 52 55 63 59 58 56 58 59 61
61 60 60 60 61 61 61 62 62 61 61 62 62 56 44 59 57 59 58 57 60 63 63 64 61 56 51 52 51 48 47 44 52 54 53 55 47 57 61 57 56 55 55 57 59
60 60 60 60 60 60 61 61 60 61 62 61 54 51 45 59 53 57 59 54 55 57 60 63 60 52 50 47 43 45 42 44 47 55 51 50 45 58 65 60 59 55 55 56 58
60 60 60 60 60 60 60 60 60 59 57 57 56 47 48 46 52 55 55 56 52 54 52 52 49 46 45 44 34 37 41 43 45 50 50 46 43 54 58 59 59 54 54 56 57
58 59 60 60 60 60 58 53 46 45 50 43 45 44 47 51 55 51 54 53 52 50 45 48 43 40 45 48 46 43 45 41 46 53 50 47 48 52 58 56 58 56 56 55 57
59 58 60 59 60 60 56 46 49 49 41 46 46 47 49 52 49 50 56 47 46 43 46 43 39 47 50 48 46 46 42 41 48 52 49 49 46 53 57 56 58 59 58 58 58
58 58 59 59 60 57 51 50 55 53 38 42 45 46 48 50 44 47 52 49 44 40 42 40 42 49 48 46 43 44 42 44 44 48 49 44 43 47 52 56 58 60 61 61 61
58 58 58 59 53 53 48 55 54 50 25 34 39 44 47 48 41 50 53 49 44 41 43 40 46 44 44 41 44 39 49 47 45 43 38 46 36 47 54 52 53 57 58 60 62
55 58 58 58 53 48 52 56 52 47 13 37 38 52 47 43 42 44 49 49 42 39 42 37 40 39 39 41 46 42 49 45 45 40 41 42 38 44 54 50 50 55 58 60 63
56 57 57 55 55 55 57 56 49 26 14 29 38 38 40 41 40 45 47 49 47 43 39 38 43 42 41 45 46 46 45 44 44 40 31 38 38 39 48 51 51 56 58 60 62
55 54 55 57 49 57 56 47 25 19 31 28 33 38 38 38 37 39 39 39 37 32 32 34 36 38 43 41 42 43 40 32 30 30 31 41 37 42 51 53 55 58 59 60 63
54 52 53 56 54 55 50 34 20 22 26 35 35 38 32 36 36 36 35 35 42 37 34 32 28 37 40 41 40 40 41 32 27 29 35 35 34 42 53 60 59 59 61 62 62
53 49 47 51 54 52 38 25 24 29 33 34 36 31 32 35 34 35 34 35 39 42 33 32 33 39 41 41 45 40 35 44 34 28 28 32 36 45 50 52 54 56 58 56 59
46 45 46 52 52 46 33 29 30 38 38 38 26 35 27 31 30 33 34 39 38 43 44 36 30 36 40 42 41 43 45 33 35 26 26 30 32 38 44 49 53 52 56 58 60
43 37 45 48 49 38 29 31 32 38 43 35 30 32 33 32 33 32 32 37 42 40 44 39 36 30 37 35 38 36 37 38 39 36 30 29 36 44 53 56 53 55 57 56 56
37 32 44 47 34 33 31 36 41 38 38 34 34 31 33 34 33 32 32 37 44 42 37 43 37 30 33 38 41 43 40 40 33 32 32 29 36 46 47 50 50 52 54 53 53
33 34 45 44 29 30 34 35 37 38 36 32 32 35 36 35 30 38 39 42 44 42 39 41 33 27 29 34 36 34 39 40 41 35 32 30 37 47 46 47 49 50 53 52 51
34 29 37 39 39 34 31 31 33 40 33 34 32 36 34 34 33 34 35 38 41 42 45 46 35 31 28 30 34 32 36 40 39 32 35 36 40 48 51 49 51 51 52 51 50
32 31 33 29 31 35 36 32 33 31 34 35 31 37 34 30 29 30 36 34 38 42 44 41 30 32 34 36 33 33 34 37 35 38 34 40 42 48 53 55 57 53 51 50 51
31 31 33 33 33 33 37 34 33 30 32 32 32 36 33 32 31 28 35 33 34 35 36 39 31 30 29 35 34 33 35 37 38 39 38 40 40 53 49 53 55 57 51 49 50
35 36 35 35 32 31 33 37 37 36 34 37 36 35 32 33 37 38 38 38 37 34 33 34 32 29 25 31 33 28 34 35 39 42 41 35 45 52 49 48 51 53 53 52 51

GFSSW_sfc_temp_168.txt.gz
Temp
65 65 65 64 64 64 65 65 64 64 64 63 64 64 63 64 64 61 56 64 65 69 67 60 62 61 60 56 56 55 46 43 48 50 52 52 54 59 58 56 58 60 57 61 59
64 64 64 64 64 64 64 64 64 64 63 63 63 63 63 64 58 55 66 70 70 69 61 57 54 57 53 52 53 52 44 47 54 53 52 54 54 53 55 55 56 58 59 59 59
63 63 64 64 64 64 64 64 64 63 63 62 63 63 63 61 52 54 68 69 69 68 62 59 58 56 50 50 50 49 46 52 54 55 56 55 55 56 53 51 57 55 57 56 56
63 63 63 63 63 63 63 64 63 63 62 62 62 62 62 56 41 58 67 68 68 65 61 57 55 51 50 47 50 46 51 54 57 58 54 54 56 53 56 59 63 60 60 57 56
62 62 62 62 63 63 63 63 63 63 62 62 62 62 57 49 49 63 66 66 64 62 58 55 56 51 47 47 48 45 49 54 57 56 55 55 54 55 54 60 61 59 58 57 59
61 61 61 61 62 62 63 63 63 62 62 62 62 62 52 42 60 61 61 61 61 61 58 58 56 55 52 49 48 49 51 52 54 54 54 52 53 54 57 59 59 58 57 57 59
61 61 61 61 61 62 62 62 63 62 62 63 63 58 51 48 60 59 61 58 61 60 56 59 61 56 53 46 50 48 46 49 49 51 51 52 50 48 59 60 59 56 56 57 59
61 61 60 60 61 61 61 62 62 61 62 62 62 55 45 59 57 58 58 56 60 62 60 62 60 55 50 50 50 48 48 44 48 50 51 52 45 53 61 57 56 56 54 56 58
60 60 60 60 60 61 61 61 61 61 62 62 52 50 44 59 52 57 58 54 55 57 60 63 58 50 50 46 42 44 39 41 48 51 50 48 43 52 61 55 54 55 55 55 57
60 60 60 60 60 60 60 61 61 60 57 57 54 47 48 46 52 54 56 55 53 55 54 54 51 43 46 42 34 38 40 40 42 48 48 43 44 49 54 54 54 59 56 55 56
59 60 60 60 60 60 59 54 46 45 49 45 44 43 46 50 54 50 54 54 53 52 45 48 43 39 45 44 44 40 37 38 42 49 46 45 46 50 53 54 52 55 54 55 56
59 60 60 60 60 60 57 47 49 50 41 46 46 47 49 52 46 50 55 48 47 43 43 42 40 44 46 45 46 45 40 39 42 48 45 46 45 51 53 54 56 56 58 56 58
58 59 59 59 59 57 52 50 56 54 38 45 45 46 48 50 44 46 52 47 41 40 41 38 40 48 47 45 42 42 41 41 41 44 46 44 43 47 52 56 57 59 60 62 60
57 58 59 58 54 54 49 55 54 49 29 33 40 44 47 49 42 50 54 48 43 40 40 39 45 43 40 41 44 39 48 47 44 41 36 45 35 46 49 52 55 55 58 60 60
56 57 58 57 55 49 53 56 54 50 18 36 38 52 46 43 42 45 51 47 39 39 40 35 37 39 38 39 43 41 48 46 44 40 39 40 35 42 48 49 54 57 58 61 62
55 57 57 55 53 55 57 57 48 27 18 29 37 39 40 42 39 46 46 48 46 42 40 39 42 39 41 43 44 44 42 41 39 38 30 39 36 39 44 49 55 60 59 60 61
54 56 55 56 49 55 55 47 28 21 32 29 32 38 38 37 36 42 40 39 35 31 32 34 35 38 40 39 39 40 38 29 27 28 28 37 35 39 47 55 58 59 61 62 62
53 54 54 54 56 54 49 34 23 25 26 33 34 38 32 37 34 37 38 36 39 33 30 29 21 35 40 41 38 37 40 31 18 22 27 33 33 41 49 57 58 59 60 61 60
54 48 48 52 55 52 40 28 26 30 33 31 35 32 30 35 35 32 35 36 39 38 31 25 27 35 38 40 43 37 33 42 33 32 29 32 35 43 48 51 53 54 57 58 59
45 44 45 53 52 46 35 31 30 37 37 37 25 32 25 32 30 32 31 38 35 43 39 34 26 34 36 42 42 37 43 31 33 25 23 31 32 36 43 49 52 54 57 58 59
43 36 45 52 49 38 31 33 34 41 41 33 28 25 28 31 32 31 31 36 42 39 40 37 32 30 37 34 36 37 35 37 38 35 25 26 33 42 48 53 56 55 56 55 55
40 31 44 49 31 34 32 32 40 39 39 35 34 31 30 33 31 31 31 35 42 41 35 37 32 23 32 34 41 39 38 38 32 31 33 32 34 46 45 48 49 49 52 52 52
32 33 45 46 30 31 35 34 39 38 38 34 33 35 34 33 28 32 33 40 41 41 37 40 28 15 26 32 36 34 39 41 41 37 31 29 35 46 48 51 55 48 51 52 50
34 29 35 39 34 34 31 30 34 42 35 35 33 38 34 32 33 31 32 37 40 42 45 46 34 29 26 28 30 30 36 38 38 31 34 35 38 45 49 50 52 56 58 55 51
32 31 33 28 30 34 36 32 31 31 36 37 33 37 35 30 30 31 34 33 39 44 42 41 29 30 31 32 35 34 32 35 34 35 32 38 39 44 48 51 54 57 58 58 58
31 31 33 33 33 33 36 32 32 32 33 35 34 37 35 33 34 31 35 34 35 37 41 41 32 32 27 32 34 30 34 34 36 36 37 38 37 48 51 52 51 52 52 53 55
35 36 34 35 32 33 31 33 36 38 36 40 39 36 34 35 37 38 38 37 37 37 37 36 32 26 19 25 28 26 31 34 36 40 39 33 41 49 47 48 50 53 55 55 57

GFSSW_sfc_temp_171.txt.gz
Temp
65 65 65 65 64 64 65 65 65 64 64 64 64 64 63 64 64 61 57 64 65 69 67 62 63 62 62 58 59 59 49 46 50 51 56 57 57 61 63 63 63 63 63 62 62
64 64 65 65 64 64 64 64 64 64 63 63 63 63 63 63 57 55 66 69 70 69 63 59 56 59 55 55 56 53 47 49 56 56 56 56 57 59 60 59 60 62 62 60 61
64 64 64 64 64 64 64 64 64 63 63 63 63 63 63 60 52 54 67 69 69 68 63 61 59 57 52 53 53 52 48 54 57 58 58 56 56 58 58 57 62 61 63 58 59
63 63 63 63 63 64 64 64 63 63 63 62 62 62 62 55 39 57 67 68 68 64 61 58 56 56 53 49 52 48 52 55 57 58 55 55 58 56 57 63 66 65 64 58 58
62 62 62 62 63 63 63 63 63 63 62 62 62 62 56 48 48 62 66 65 64 62 58 55 53 51 50 51 50 48 51 54 56 56 55 56 55 55 57 63 63 63 60 59 59
62 61 61 61 62 62 63 63 63 63 62 62 62 62 52 41 59 60 61 60 60 60 57 57 55 56 51 49 49 50 51 52 54 54 55 53 54 55 58 61 60 60 60 60 60
61 61 61 61 61 62 62 62 63 62 62 63 63 57 51 48 58 58 60 59 60 60 55 58 58 56 54 47 53 50 47 50 50 53 53 53 49 49 60 61 58 58 60 59 60
61 60 61 61 61 61 62 62 62 62 62 63 62 53 44 58 56 58 57 56 59 61 60 60 60 55 54 53 51 47 47 42 49 50 52 53 45 54 58 56 57 59 59 59 61
60 60 60 61 60 61 61 61 61 62 62 62 52 48 42 58 53 56 57 54 57 58 59 62 59 51 52 46 42 44 37 40 44 50 50 48 44 53 58 56 54 56 57 57 59
60 60 60 61 60 60 60 61 61 60 57 57 54 46 46 45 52 54 56 55 55 54 54 53 50 44 46 44 33 36 36 39 42 48 47 45 44 50 54 54 54 54 57 57 59
59 60 60 60 60 61 59 55 47 45 49 44 43 42 46 49 53 51 54 54 53 51 45 46 42 39 42 45 42 40 38 37 41 48 45 46 47 50 54 54 53 56 56 57 59
58 59 60 61 61 61 58 49 49 49 41 45 45 46 48 52 45 48 55 49 47 44 43 43 40 44 47 47 44 41 38 38 42 46 45 44 44 51 53 54 56 56 58 59 61
58 58 60 60 60 57 52 51 58 53 37 43 45 47 47 49 43 45 52 48 43 41 42 40 40 48 46 44 42 42 41 41 41 45 47 44 42 47 51 55 57 58 60 61 62
57 57 59 60 54 55 49 57 57 49 32 34 40 45 46 48 41 50 52 49 44 41 43 41 44 43 41 40 43 37 46 44 43 41 35 44 33 44 49 51 54 56 57 59 61
55 56 58 60 53 50 54 57 56 50 19 36 40 51 47 43 42 44 50 47 39 38 41 36 37 39 37 41 44 42 46 45 43 40 37 39 34 39 45 44 50 55 55 59 61
54 55 57 56 54 56 56 57 49 28 18 31 39 38 39 40 39 46 46 48 46 40 39 37 41 40 41 42 43 44 42 41 41 38 30 37 35 39 44 47 50 56 58 61 62
53 52 55 56 49 57 55 47 29 22 32 30 33 38 38 37 38 41 40 39 35 31 28 33 35 39 41 38 39 40 39 26 22 27 26 37 34 40 46 50 52 56 60 63 63
53 54 53 55 56 54 48 35 24 27 29 36 35 38 33 37 38 39 38 35 41 34 32 30 27 37 42 40 36 37 39 27 17 20 26 33 30 38 48 53 55 57 59 58 57
53 48 49 51 55 52 40 29 30 30 32 33 36 31 32 36 35 37 37 38 41 37 30 26 28 37 37 40 42 36 33 42 29 23 26 31 36 46 49 49 49 50 53 55 59
44 43 45 52 54 47 34 32 30 37 37 37 29 34 27 32 29 33 34 40 40 42 38 34 26 34 37 40 40 37 41 30 33 16 18 28 31 35 41 47 52 50 52 55 58
43 36 44 52 50 39 30 32 32 36 42 36 29 28 29 32 33 31 32 34 43 40 39 35 31 30 37 35 33 35 35 35 35 30 24 21 29 41 47 50 51 51 52 53 54
39 29 43 48 34 34 31 33 37 36 39 35 34 30 32 34 30 31 30 34 43 42 35 35 31 26 31 34 37 38 36 37 32 27 31 32 33 50 46 46 48 51 54 52 53
33 32 44 45 29 30 32 32 33 36 39 35 32 34 34 34 28 32 34 38 41 41 38 38 26 19 23 29 34 34 36 39 39 34 29 26 31 46 46 46 48 47 51 49 53
34 28 36 39 38 33 32 30 29 39 35 35 34 37 34 32 32 30 32 35 39 42 45 45 30 30 26 28 30 32 35 38 36 30 32 33 36 44 47 48 52 54 56 57 57
32 31 29 28 31 33 34 32 30 30 35 37 34 37 33 29 30 31 33 34 35 43 40 38 25 27 29 32 35 34 32 36 35 37 32 37 37 43 47 44 47 52 53 54 56
31 31 33 32 34 33 34 31 32 32 33 33 34 37 38 32 34 29 33 33 33 39 40 38 21 28 23 31 31 30 31 33 34 38 38 38 36 47 49 50 49 51 52 52 54
34 36 35 34 32 32 32 31 33 36 34 42 39 36 33 37 39 42 41 42 38 37 36 36 31 29 24 28 29 21 31 32 33 36 37 31 40 47 46 48 49 51 52 52 54